STARLINK-1761 (47626 NORAD) Tracking and Keplerian Element Data

This shows tracking and keplerian element data for the satellite.

Feedback or suggestion? Click here.




ElementValue
Catalog47626
NameSTARLINK-1761
Epoch Orbit896
Epoch Day99.91667824
Epoch Year2021
RAAN208.657
Inclination53.0527
Eccentricity0.000112
Argument of Perigee58.981
Mean Anonmoly86.9038
Mean Motion15.06430889
Decay Rate-0.00028331
L11 47626U 21012G 21099.91667824 -.00028331 00000-0 -18891-2 0 9993
L22 47626 53.0527 208.6570 0001120 58.9810 86.9038 15.06430889 8963

Live tracking and technical data element details for STARLINK-1761 (NORAD 47626). STARLINK-1761 can be tracked NOW for your location showing map with azimuth and elevation plus other details from your city location.

Track the satellite on the map from your city or location and see movement details for azimuth, elevation, latitude, longitude, range, height, and movement on the map or in text.







IsCatalogInMostPopularTable: catalog: 47626, numindb: 15
Update: records affected: 1



GetName: 47626 STARLINK-1761

Hit Count: updated at: Sat, 10 Apr 2021 18:17:29 GMT